Погода Атырау

Погода Атырау : погода сейчас, прогноз погоды и архив. Всё, что Вы хотите узнать о погоде Атырау!

Хотите узнать прогноз погоды в Атырау? Тогда Вам сюда: Погода в Атырау

Поиск расширенной информации на нашем сайте:

Другие новости

Новости СМИ2

Главная страница сайта

Новости сайта

03.07.2017

Напоминаем, что на нашем специализированном сайте Метеоцентр.Азия вы можете получить высокодетализированные автоматические прогнозы погоды по пунктам России, СНГ и мира в авиационном формате (включающие направление и скорость ветра, видимость, явления погоды, количество и форму облачности, нижнюю и верхнюю границу облачности).


Погода Атырау - сегодня

Время (UTC), дата Ветер
(°,м/с) 
Видим.   Явления Облачность Т
(°С)
Тd
(°С)
f(%) Тe
(°С)
Pmin
(гПа)
dP
(гПа)
Po
(мм)
O2
(г/м3)
Тmin Tmax R s Состояние
почвы
00 17.08.17 150 (ЮВ) 20000 м    8/0 средняя, верхняя 
[Ac cuf|Cs]
+24.4 +7.8 35 +24  1018.8  0.4  766  282           
03 17.08.17 100 (В) 20000 м    8/0 средняя, верхняя 
[Ac lent|Cs]
+23.2 +10 43 +24  1019.6  0.8  766  283  +22.5        сухая 
06 17.08.17 130 (ЮВ) 20000 м    9/0 средняя, верхняя 
[Ac lent|Cs]
+27.8 +9.4 32 +28  1020.7  1.1  767  279  +22.5         
09 17.08.17 130 (ЮВ) 20000 м    8/3 1000 м средняя, верхняя 
[Cu hum|Ac lent|Cs]
+32.5 -0.7 12 +33  1020.6  -0.2  767  276           
12 17.08.17 130 (ЮВ) 20000 м    8/6 1000 м верхняя 
[Cu hum|Ci ing]
+33 +0.6 13 +33  1019.5  -1.1  766  275           
15 17.08.17 180 (Ю) 20000 м    8/0 средняя, верхняя 
[Ac cast|Cc]
+31.5 +0.6 14 +32  1018.7  -0.8  766  277    +34       
18 17.08.17 020 (С) 20000 м    8/0 средняя, верхняя 
[Ac lent|Cc]
+27 +1.1 19 +27  1018.6  766  281    +34       
21 17.08.17 060 (СВ) 20000 м    6/0 средняя, верхняя 
[Ac lent|Cc]
+23.5 +1.7 24 +24  1018.4  -0.2  765  284           
00 18.08.17 060 (СВ) 20000 м    6/0 средняя 
[Ac lent]
+20.5 +1.5 28 +21  1018.1  -0.3  765  287           
03 18.08.17 110 (В) 20000 м    8/4 1000 м средняя 
[Sc|Ac lent]
+22.5 +2.9 28 +23  1018.7  0.6  766  285           
06 18.08.17 140 (ЮВ) 20000 м    8/3 1000 м верхняя 
[Sc|Cs]
+32.1 +4.5 18 +32  1019  0.2  766  275  +20.3         
09 18.08.17 160 (Ю) 20000 м    8/0 средняя, верхняя 
[Ac trans|Cs]
+33.8 +2.3 14 +34  1018.6  -0.4  766  274           
12 18.08.17 130 (ЮВ) 20000 м    8/3 1000 м верхняя 
[Cu hum|Ci fib]
+34.8 -0.2 11 +35  1017.8  -0.8  765  273           
15 18.08.17 240 (ЮЗ) 20000 м    8/0 средняя, верхняя 
[Ac cast|Cs]
+32 +2.3 15 +32  1017.3  -0.5  765  275    +35.1       
18 18.08.17 300 (СЗ) 20000 м    6/0 средняя, верхняя 
[Ac cast|Cs]
+26.7 +1.1 19 +27  1018.3  1.1  765  281    +35.1       
21 18.08.17 250 (З) 20000 м    8/0 средняя, верхняя 
[Ac cast|Cs]
+21.6 +0.4 24 +22  1018.4  0.1  773  289           
00 19.08.17 тихо ()   20000 м    4/0 верхняя 
[Cs]
+19.5 +11.1 58 +22  1018.1  -0.3  765  286           
03 19.08.17 070 (В) 20000 м    9/0 средняя 
[Ac lent]
+22.8 +4.3 30 +23  1018.8  0.7  766  284  +19.4        сухая 
06 19.08.17 040 (СВ) 20000 м    8/0 средняя 
[Ac lent]
+31.3 +2.3 16 +31  1019.7  0.8  766  277  +19.4         
09 19.08.17 180 (Ю) 20000 м    8/0 средняя, верхняя 
[Ac cast|Ci fib]
+33.4 +2.1 14 +33  1020.5  0.8  767  275           
12 19.08.17 200 (Ю) 20000 м    8/0 средняя, верхняя 
[Ac cast|Ci fib]
+33.9 +0 12 +34  1020.6  0.1  767  275           
15 19.08.17 210 (ЮЗ) 20000 м    4/0 верхняя 
[Cs]
+32.7 -0.7 12 +33  1020.5  -0.1  767  276    +34.8       
18 19.08.17 340 (С) 20000 м    4/0 верхняя 
[Cs]
+26.6 -0.7 17 +27  1021.2  0.8  768  282    +34.8       
21 19.08.17 110 (В) 20000 м    ясно 
+25.5 +0.4 19 +26  1021.8  0.6  768  283           
00 20.08.17 130 (ЮВ) 20000 м    ясно 
+24 +6.7 33 +24  1021.8  768  283           
Время (UTC), дата Ветер
(°,м/с) 
Видим.   Явления Облачность Т
(°С)
Тd
(°С)
f(%) Тe
(°С)
Pmin
(гПа)
dP
(гПа)
Po
(мм)
O2
(г/м3)
Тmin Tmax R s Состояние
почвы

Для получения пояснительной информации подведите курсор к названию столбца.

ПОГОДА Атырау - архив

Всё, что Вы хотите узнать о погоде Атырау - удобно и подробно!

Выберите нужную дату (начиная с 1 января 2015* года) и нажмите кнопку "Найти".
Будут отображены архивные сводки погоды по пункту Атырау, начиная с указанной даты.


Отображать данные в формате CSV (для использования в таблицах Excel)


Внимание! Наш архив погоды предназначен исключительно для личного некоммерческого использования в познавательных целях. Если Вам необходимы официальные справки о состоянии погоды (для производственных, юридических, коммерческих и т.п. целей), обращайтесь в органы Росгидромета.

*Примечание: данная дата относится к архиву по метеостанциям СССР (Россия, СНГ, Балтия).
Архив по метеостанциям Зарубежной Европы и Азии (кроме Китая) хранится 10 дней, по другим регионам земного шара (Китай, Африка, Америка, Австралия, Океания) - 1 день.

Атырау - район местоположения метеостанции


Название, широта, долгота, высота метеостанции:
Атырау (город) 47.1°ш. 51.7°д. -23 м над ур. моря [Казахстан]

Дополнительная информация

В oтличие oт бoльшинства пoгoдных сайтoв мы публикуем пoдрoбную метеoинфoрмацию в детальнoм прoфессиoнальнoм фoрмате.

Характеристики температуры и влажнoсти вoздуха измеряются на высoте 2 м в тени вдали oт зданий и деревьев.
Скoрoсть ветра измеряется на высoте 10 м (на урoвне рoста челoвека скoрoсть ветра ниже в 1.5-2 раза). Если метеoстанция нахoдится в гoрoде или в лесу, тo скoрoсть ветра занижена на 2-4 м/с пo сравнению с oткрытым местoм. Скoрoсть ветра над акватoриями крупных рек и oзёр, а также на вершинах хoлмoв на 2-5 м/с выше, чем в oбычных услoвиях.
Атмoсфернoе давление в разных тoчках местнoсти мoжет значительнo oтличаться oт давления на метеoстанции, в зависимoсти oт услoвий рельефа (при пoдъёме на 10 м давление пoнижается примернo на 1 мм рт.ст.).